Weather History for Olathe, KS

Change the Weather History Date:

Wednesday, October 2, 2013

  Actual Average Record
Temperature  
Mean Temperature 72 °F 62 °F  
Max Temperature 82 °F 72 °F 94 °F (1953)
Min Temperature 61 °F 52 °F 35 °F (1974)
Degree Days  
Heating Degree Days 0 5  
Month to date heating degree days 0 10  
Since 1 July heating degree days 27 59  
Cooling Degree Days 7 2  
Month to date cooling degree days 11 4  
Year to date cooling degree days 1340 1325  
Growing Degree Days 21 (Base 50)    
Moisture  
Dew Point 65 °F    
Average Humidity 79    
Maximum Humidity 100    
Minimum Humidity 58    
Precipitation  
Precipitation 0.00 in 0.15 in 2.19 in (1959)
Month to date precipitation 0.00 0.30  
Year to date precipitation 29.50 32.77  
Sea Level Pressure  
Sea Level Pressure 29.96 in    
Wind  
Wind Speed 6 mph (SSE)    
Max Wind Speed 14 mph    
Max Gust Speed 17 mph    
Visibility 6 miles    
Events Fog    
T = Trace of Precipitation, MM = Missing Value Source: NWS Daily Summary

Daily Weather History Graph

Daily Weather History Graph

Search for Another Location

Airport:

Trip Planner

Search our weather history database for the weather conditions in past years. The results will help you decide how hot, cold, wet, or windy it might be!

Date:

Astronomy

Oct. 02, 2013 Rise Set
Actual Time 7:16 AM CDT 6:59 PM CDT
Civil Twilight 6:49 AM CDT 7:26 PM CDT
Nautical Twilight 6:18 AM CDT 7:57 PM CDT
Astronomical Twilight 5:47 AM CDT 8:28 PM CDT
Moon 4:51 AM CDT (10/2) 5:35 PM CDT (10/2)
Length of Visible Light 12h 36m
Length of Day
11h 43m
Waning Crescent, 6% of the Moon is Illuminated
Oct 2
Waning Crescent
Oct 4
New
Oct 11
First Quarter
Oct 18
Full
Oct 26
Last Quarter

Hourly Weather History & Observations

Time (CDT) Temp. Heat Index Dew Point Humidity Pressure Visibility Wind Dir Wind Speed Gust Speed Precip Events Conditions
12:53 AM 66.0 °F - 60.1 °F 81% 29.95 in 10.0 mi SSE 3.5 mph - N/A   Clear
1:53 AM 66.0 °F - 60.1 °F 81% 29.95 in 10.0 mi Calm Calm - N/A   Partly Cloudy
2:53 AM 64.9 °F - 61.0 °F 87% 29.96 in 9.0 mi SSE 3.5 mph - N/A   Clear
3:53 AM 64.0 °F - 61.0 °F 90% 29.96 in 8.0 mi Calm Calm - N/A   Clear
4:53 AM 63.0 °F - 61.0 °F 93% 29.96 in 7.0 mi SSE 3.5 mph - N/A   Clear
5:53 AM 61.0 °F - 60.1 °F 97% 29.97 in 4.0 mi SSE 3.5 mph - N/A   Clear
6:32 AM 62.6 °F - 60.8 °F 94% 30.00 in 4.0 mi SSE 3.5 mph - N/A   Mostly Cloudy
6:41 AM 60.8 °F - 60.8 °F 100% 30.00 in 4.0 mi SSE 3.5 mph - N/A   Scattered Clouds
6:53 AM 62.1 °F - 61.0 °F 96% 29.98 in 3.0 mi SSE 3.5 mph - N/A   Partly Cloudy
7:09 AM 62.6 °F - 60.8 °F 94% 30.00 in 3.0 mi SSE 3.5 mph - N/A   Mostly Cloudy
7:37 AM 64.4 °F - 62.6 °F 94% 30.01 in 3.0 mi Variable 4.6 mph - N/A   Overcast
7:53 AM 64.0 °F - 63.0 °F 96% 29.99 in 3.0 mi SSE 4.6 mph - N/A   Overcast
8:23 AM 64.4 °F - 64.4 °F 100% 30.01 in 2.5 mi SSE 6.9 mph - N/A   Overcast
8:28 AM 66.2 °F - 64.4 °F 94% 30.01 in 0.8 mi SSE 6.9 mph - N/A   Overcast
8:49 AM 66.2 °F - 66.2 °F 100% 30.02 in 0.2 mi South 4.6 mph - N/A Fog Fog
8:53 AM 66.0 °F - 66.0 °F 100% 30.00 in 0.2 mi South 5.8 mph - N/A Fog Fog
9:53 AM 68.0 °F - 68.0 °F 100% 30.01 in 0.5 mi SSE 8.1 mph - N/A Fog Fog
10:53 AM 69.1 °F - 68.0 °F 96% 30.00 in 1.0 mi South 3.5 mph - N/A   Overcast
11:19 AM 69.8 °F - 69.8 °F 100% 30.02 in 2.0 mi South 8.1 mph - N/A   Overcast
11:48 AM 71.6 °F - 69.8 °F 94% 30.01 in 5.0 mi SSW 5.8 mph - N/A   Overcast
11:53 AM 72.0 °F - 69.1 °F 91% 29.99 in 5.0 mi South 6.9 mph - N/A   Overcast
12:17 PM 73.4 °F - 69.8 °F 88% 30.01 in 7.0 mi SW 6.9 mph - N/A   Mostly Cloudy
12:53 PM 77.0 °F - 69.1 °F 76% 29.96 in 8.0 mi Variable 4.6 mph - N/A   Mostly Cloudy
12:59 PM 77.0 °F - 69.8 °F 78% 29.99 in 9.0 mi SSE 5.8 mph - N/A   Scattered Clouds
1:53 PM 80.1 °F 82.3 °F 66.9 °F 64% 29.92 in 10.0 mi South 9.2 mph - N/A   Clear
1:57 PM 80.6 °F 82.7 °F 66.2 °F 61% 29.94 in 10.0 mi SSE 9.2 mph - N/A   Scattered Clouds
2:53 PM 82.0 °F 84.1 °F 66.0 °F 58% 29.89 in 10.0 mi SSW 9.2 mph - N/A   Mostly Cloudy
3:53 PM 80.1 °F 82.1 °F 66.0 °F 62% 29.88 in 10.0 mi SSW 10.4 mph - N/A   Scattered Clouds
4:53 PM 81.0 °F 83.0 °F 66.0 °F 60% 29.87 in 10.0 mi South 9.2 mph - N/A   Scattered Clouds
5:53 PM 80.1 °F 82.3 °F 66.9 °F 64% 29.86 in 10.0 mi South 5.8 mph - N/A   Clear
6:53 PM 75.9 °F - 66.0 °F 71% 29.87 in 10.0 mi SSE 6.9 mph - N/A   Clear
7:53 PM 73.0 °F - 66.0 °F 79% 29.88 in 10.0 mi SE 5.8 mph - N/A   Clear
8:53 PM 72.0 °F - 66.9 °F 84% 29.88 in 10.0 mi SSE 5.8 mph - N/A   Partly Cloudy
9:53 PM 71.1 °F - 66.9 °F 87% 29.88 in 10.0 mi SSE 6.9 mph - N/A   Clear
10:53 PM 70.0 °F - 68.0 °F 93% 29.88 in 9.0 mi SSE 8.1 mph - N/A   Clear
11:53 PM 69.1 °F - 66.9 °F 93% 29.87 in 9.0 mi SSE 8.1 mph - N/A   Clear